DG7YEO-13 Weather Reports


time (UTC)temp
C
wind
direction
speed
KPH
gust
KPH
rain 1hr
cm
rain 24hr
cm
rain mn
cm
humidity
%
barometer
mb
20190819143206 22 180 1.6 8.0 0.00 0.00 0.00 50 1016.0
20190819141705 23 111 3.2 12.9 0.00 0.00 0.00 50 1015.9
20190819140211 22 83 1.6 9.7 0.00 0.00 0.00 50 1016.1
20190819134706 22 292 3.2 14.5 0.00 0.00 0.00 50 1016.0
20190819133206 22 53 4.8 14.5 0.00 0.00 0.00 48 1016.1
20190819131705 23 318 3.2 14.5 0.00 0.00 0.00 49 1016.0
20190819130205 22 34 3.2 14.5 0.00 0.00 0.00 50 1015.8
20190819124705 22 255 3.2 14.5 0.00 0.00 0.00 52 1015.9
20190819123206 22 134 1.6 14.5 0.00 0.00 0.00 53 1015.8
20190819121705 22 276 3.2 12.9 0.00 0.00 0.00 53 1015.7
20190819120205 22 78 3.2 11.3 0.00 0.00 0.00 55 1015.6
20190819114705 22 134 3.2 11.3 0.00 0.03 0.00 55 1015.5
20190819113205 21 355 3.2 11.3 0.00 0.03 0.00 57 1015.4
20190819111707 21 191 1.6 14.5 0.00 0.03 0.00 57 1015.4
20190819110206 21 111 1.6 11.3 0.00 0.05 0.00 61 1015.2
20190819104705 21 298 1.6 11.3 0.00 0.08 0.00 60 1015.1
20190819103205 21 71 3.2 12.9 0.00 0.13 0.00 61 1014.9
20190819101705 20 69 3.2 12.9 0.00 0.28 0.00 64 1014.8
20190819100206 20 89 3.2 11.3 0.00 0.41 0.00 63 1014.7
20190819094710 20 84 3.2 14.5 0.00 0.41 0.00 64 1014.7
20190819093205 20 53 3.2 12.9 0.00 0.41 0.00 66 1014.6
20190819090205 19 53 3.2 16.1 0.00 0.43 0.00 72 1014.6
20190819084705 18 95 3.2 19.3 0.00 0.46 0.00 74 1014.6
20190819083205 18 264 1.6 11.3 0.00 0.46 0.00 77 1014.5
20190819081706 17 185 1.6 12.9 0.00 0.46 0.00 79 1014.4
20190819080205 17 307 3.2 9.7 0.00 0.46 0.00 79 1014.3
20190819074720 17 62 1.6 14.5 0.00 0.46 0.00 81 1014.0
20190819073206 16 101 1.6 12.9 0.00 0.46 0.00 82 1014.0
20190819071710 16 242 1.6 12.9 0.00 0.48 0.00 84 1013.9
20190819070205 16 85 1.6 8.0 0.00 0.48 0.00 84 1013.9
20190819064705 15 94 1.6 9.7 0.00 0.48 0.00 86 1013.8
20190819063205 15 90 1.6 9.7 0.00 0.51 0.00 88 1013.8
20190819061711 15 37 1.6 9.7 0.00 0.51 0.00 89 1013.8
20190819060211 14 85 0.0 4.8 0.00 0.51 0.00 90 1013.8
20190819054714 13 72 0.0 4.8 0.00 0.51 0.00 91 1013.7
20190819053213 13 70 0.0 4.8 0.00 0.53 0.00 92 1013.6
20190819051710 13 111 0.0 3.2 0.00 0.53 0.00 92 1013.3
20190819050205 12 73 0.0 3.2 0.00 0.58 0.00 92 1013.2
20190819044704 12 73 0.0 3.2 0.00 0.64 0.00 91 1013.0
20190819043206 13 73 0.0 3.2 0.00 0.74 0.00 91 1012.8
20190819041705 13 67 0.0 4.8 0.00 0.76 0.00 90 1012.6
20190819040206 13 64 0.0 3.2 0.00 0.79 0.00 90 1012.5
20190819034706 13 63 0.0 4.8 0.00 0.81 0.00 91 1012.5
20190819033205 13 63 0.0 4.8 0.00 0.86 0.00 91 1012.4
20190819031705 13 67 0.0 3.2 0.00 0.89 0.00 90 1012.2
20190819030210 13 103 0.0 1.6 0.00 0.89 0.00 91 1012.0
20190819024705 13 107 0.0 6.4 0.00 0.91 0.00 91 1012.0
20190819023206 13 46 0.0 1.6 0.00 0.94 0.00 91 1012.1
20190819021705 13 46 0.0 4.8 0.00 0.97 0.00 92 1012.1
20190819020211 13 80 0.0 1.6 0.00 0.99 0.00 93 1011.9
20190819014705 13 80 0.0 0.0 0.00 1.02 0.00 94 1011.8
20190819013206 13 80 0.0 1.6 0.00 1.04 0.00 95 1011.4
20190819011705 14 79 0.0 4.8 0.00 1.04 0.00 95 1011.5
20190819010205 14 68 0.0 1.6 0.00 1.04 0.00 96 1011.2
20190819004705 15 68 0.0 1.6 0.00 1.04 0.00 96 1011.1
20190819003206 15 68 0.0 0.0 0.00 1.04 0.00 95 1010.9
20190819001705 15 68 0.0 1.6 0.00 1.07 0.00 95 1010.7
20190819000210 15 68 0.0 1.6 0.00 1.07 0.00 95 1010.6
20190818234706 15 68 0.0 0.0 0.00 1.07 0.00 95 1010.9
20190818233205 15 68 0.0 1.6 0.00 1.07 0.00 95 1010.7
20190818231705 15 68 0.0 1.6 0.00 1.07 0.00 95 1010.4
20190818230206 15 68 0.0 1.6 0.00 1.07 0.00 95 1010.2
20190818224705 15 68 0.0 1.6 0.00 1.07 0.00 95 1010.1
20190818223205 15 18 0.0 3.2 0.00 1.07 0.00 96 1010.0
20190818221705 15 270 0.0 3.2 0.00 1.07 0.00 96 1009.8
20190818220205 15 72 0.0 3.2 0.00 1.07 1.07 96 1009.6
20190818214705 15 72 0.0 1.6 0.00 1.12 1.07 95 1009.5
20190818213205 15 72 0.0 0.0 0.00 1.12 1.07 95 1009.5
20190818211705 15 73 0.0 0.0 0.00 1.12 1.07 94 1009.3
20190818210205 15 72 0.0 0.0 0.00 1.12 1.07 95 1009.3
20190818204705 16 72 0.0 0.0 0.00 1.12 1.07 95 1009.2
20190818203205 16 72 0.0 0.0 0.00 1.12 1.07 94 1009.2
20190818201705 16 72 0.0 0.0 0.00 1.12 1.07 94 1009.1
20190818200205 16 72 0.0 0.0 0.00 1.12 1.07 94 1009.1
20190818194711 16 72 0.0 0.0 0.00 1.12 1.07 93 1009.0
20190818193206 16 72 0.0 0.0 0.00 1.12 1.07 93 1008.9
20190818191705 16 72 0.0 0.0 0.00 1.12 1.07 93 1008.8
20190818190215 17 72 0.0 1.6 0.00 1.12 1.07 92 1008.6
20190818184715 17 72 0.0 1.6 0.00 1.12 1.07 92 1008.3
20190818183205 17 72 0.0 1.6 0.00 1.12 1.07 92 1008.3
20190818181705 17 73 0.0 3.2 0.00 1.12 1.07 92 1008.0
20190818180205 17 14 0.0 3.2 0.00 1.12 1.07 91 1007.9
20190818174708 17 104 0.0 3.2 0.00 1.12 1.07 91 1007.7
20190818173209 17 165 1.6 8.0 0.00 1.12 1.07 91 1007.6
20190818171714 17 125 0.0 4.8 0.00 1.12 1.07 91 1007.7
20190818170205 17 229 0.0 8.0 0.00 1.12 1.07 92 1007.4
20190818164705 17 88 0.0 4.8 0.00 1.14 1.07 93 1007.1
20190818163205 17 86 0.0 8.0 0.00 1.14 1.07 93 1007.3
20190818161705 17 74 0.0 4.8 0.00 1.14 1.07 94 1007.1
20190818160205 17 113 0.0 4.8 0.00 1.14 1.07 94 1006.9
20190818154704 17 82 0.0 4.8 0.00 1.14 1.07 94 1006.9
20190818153206 17 46 0.0 3.2 0.00 1.14 1.07 94 1006.8
20190818151705 17 55 0.0 3.2 0.00 1.14 1.07 93 1006.7
20190818150205 17 178 0.0 3.2 0.00 1.14 1.07 93 1006.4
20190818144705 17 44 0.0 3.2 0.00 1.14 1.07 93 1006.1